Wind_Speed
3 3 2 4 5 6 8 9 5 1 4 5 3 2 1 1 2 3 4 4 5 4 2 0 1 6 10 9 9 7 7 8 8 8 7 7 7 6 7 6 7 7 7 10 16 19 20 21 21 21 21 21 20 19 19 19 18 17 16 16 16 15 16 17 17 18 17 16 16 15 15 14 13 11 9 9 8 8 8 9 10 9 8 7 7 6
3 4 5 6 8 8 8 8 4 2 3 4 3 3 1 1 1 2 4 3 2 1 2 2 2 5 7 8 8 7 7 7 8 9 9 9 8 6 7 8 8 6 5 8 12 16 19 20 21 22 21 22 21 20 20 19 19 17 16 16 16 16 18 18 19 19 18 18 18 17 16 14 12 11 10 9 9 9 9 9 10 9 8 7 7 5
1 3 7 6 5 3 4 3 3 3 1 1 2 3 1 2 2 2 4 4 2 1 2 2 3 3 1 3 5 3 4 3 4 8 9 10 9 7 8 8 7 6 5 7 9 13 18 20 22 22 21 22 22 21 20 20 19 18 17 17 17 18 19 19 19 19 18 18 17 16 15 14 12 10 9 8 8 9 10 10 10 9 8 7 6 5
1 4 5 4 4 3 2 2 2 4 3 1 2 2 2 3 3 1 3 4 1 1 4 4 3 1 2 1 3 3 0 1 3 5 7 8 9 10 10 9 8 8 8 8 8 11 16 19 21 21 21 22 22 21 21 20 20 19 18 18 18 19 20 20 20 19 18 16 15 13 12 12 11 9 9 8 8 9 11 11 10 10 9 8 6 5
4 6 3 4 5 5 2 2 2 4 3 2 4 4 2 4 3 2 4 6 2 3 7 7 3 2 2 3 6 5 2 2 3 3 6 7 8 8 8 8 9 10 10 10 9 9 14 18 20 21 22 22 22 22 23 23 22 21 20 20 20 21 20 21 21 19 17 16 14 13 12 12 11 10 9 10 9 10 11 11 10 11 10 8 7 6
5 6 4 4 2 3 2 2 4 5 2 3 4 7 4 4 5 6 8 6 2 2 7 8 4 2 4 6 8 6 3 4 3 3 8 9 7 6 6 7 9 9 10 11 11 11 14 17 19 20 22 23 23 24 24 24 23 22 22 22 22 22 21 21 20 19 17 16 15 15 14 14 14 12 12 12 11 11 11 10 9 9 11 10 9 8
3 4 4 5 4 4 2 4 4 5 2 3 4 6 6 6 7 8 8 4 1 2 4 4 3 2 4 7 10 8 6 6 5 4 8 9 7 6 7 7 8 9 9 10 11 12 14 17 18 20 22 24 24 25 25 24 23 23 23 23 23 23 22 21 21 20 18 17 16 16 15 14 14 14 13 12 11 11 9 8 7 8 10 11 10 10
1 1 1 3 4 4 4 4 5 7 5 3 4 4 8 8 7 8 6 2 1 1 1 3 1 2 3 8 11 10 8 8 7 6 7 9 9 8 8 7 8 10 10 10 10 10 14 18 20 22 24 26 26 25 25 24 25 24 23 23 23 23 22 22 22 21 20 18 18 17 15 14 13 12 12 12 11 11 10 9 8 7 9 11 11 11
1 1 4 5 3 4 5 6 7 8 5 2 3 8 7 7 6 5 4 2 2 2 2 4 4 2 3 5 8 9 10 11 10 8 7 9 11 10 9 8 9 10 10 11 11 11 14 19 22 25 26 26 26 26 27 26 26 25 24 24 23 23 22 22 22 22 21 19 18 17 16 15 13 11 11 12 11 11 12 11 9 8 9 11 11 11
4 5 7 6 4 5 7 7 8 9 4 3 10 13 8 8 7 3 2 2 2 0 3 5 6 3 3 3 6 9 11 13 10 8 7 9 10 10 9 9 9 8 9 10 12 14 18 22 24 25 25 25 25 27 28 27 27 27 25 24 24 24 23 22 22 22 21 20 19 18 16 15 14 13 12 13 13 13 13 13 11 10 10 11 12 12
5 3 4 4 5 7 5 3 4 9 10 8 10 10 8 6 5 3 1 2 1 2 2 6 9 4 3 3 8 9 10 11 9 6 6 7 9 10 9 8 9 9 8 9 10 14 19 22 22 21 22 23 24 25 26 26 27 27 27 26 25 25 24 22 22 22 22 21 19 18 17 15 14 15 15 15 15 15 15 14 13 12 11 11 12 12
5 1 2 4 6 5 4 3 2 9 12 8 5 5 4 3 3 2 2 2 1 3 2 3 8 6 4 4 6 7 9 13 13 9 9 10 10 11 9 8 9 9 9 9 9 10 14 15 16 18 19 21 22 24 25 26 27 28 28 28 27 26 25 24 24 23 22 22 20 19 18 15 15 15 16 16 16 16 16 16 14 13 12 12 13 14
4 4 3 4 2 7 7 5 4 5 5 4 5 6 4 2 2 1 2 2 2 3 1 2 5 5 5 5 5 8 11 15 15 11 11 12 12 11 10 9 8 8 9 9 8 9 9 12 15 18 19 20 22 24 26 27 27 28 29 29 28 28 26 25 25 24 23 23 21 20 18 16 16 16 17 17 17 17 17 17 15 14 14 14 15 15
4 4 3 1 1 4 7 7 4 2 3 4 6 5 4 3 1 1 2 2 3 3 1 3 4 3 4 4 6 11 14 14 13 11 11 11 12 12 11 10 8 8 9 9 9 9 9 12 17 19 21 22 23 25 26 27 28 28 28 29 29 29 28 27 26 25 25 24 22 20 18 17 16 17 18 18 18 17 18 17 16 15 14 14 15 16
1 4 2 3 2 3 5 7 9 8 6 5 4 4 5 4 3 3 3 2 2 1 1 4 3 3 2 3 4 7 11 11 10 9 8 8 9 9 8 9 8 9 9 8 9 10 11 16 20 20 22 23 24 25 26 26 27 28 28 29 30 29 28 28 26 26 26 25 22 20 19 18 17 17 18 19 19 18 18 18 17 16 15 14 15 15
1 4 7 4 2 6 5 3 7 8 4 2 2 4 2 4 5 2 2 4 3 1 1 2 2 3 3 3 3 1 5 8 9 7 6 5 6 7 7 8 8 9 9 9 9 10 12 18 21 21 22 23 24 25 25 25 27 28 28 29 30 29 29 28 27 27 27 26 23 20 20 19 18 17 18 19 19 18 18 17 17 17 16 15 14 14
1 4 6 4 2 6 5 4 5 5 4 2 2 3 4 3 6 4 1 1 2 1 1 2 2 3 2 3 1 3 5 7 9 9 8 5 5 7 7 8 9 9 10 10 10 11 13 17 20 21 23 23 24 25 26 27 28 29 29 29 29 28 28 27 26 26 27 26 23 21 20 20 19 19 19 19 19 18 17 17 16 16 16 16 15 15
1 4 5 3 3 2 3 8 4 1 4 4 2 5 2 2 3 4 2 2 2 1 2 2 3 3 1 2 1 4 6 8 10 11 10 7 7 8 7 7 8 9 10 11 11 11 13 17 20 21 23 25 26 27 28 29 30 29 29 29 29 28 28 28 27 26 27 26 24 22 21 20 20 20 19 19 18 17 17 17 17 17 17 17 16 16
2 2 6 3 2 2 2 8 3 3 1 5 3 3 4 2 1 1 2 1 1 1 3 2 3 3 3 3 3 7 9 10 11 11 12 12 10 10 9 7 7 8 9 9 10 10 11 16 20 22 23 24 26 27 29 29 29 28 29 29 29 29 29 28 27 27 26 26 25 24 22 21 20 20 19 18 17 17 18 18 17 17 17 17 16 16
3 1 4 5 3 1 2 3 5 5 2 4 2 1 3 3 3 1 2 2 3 2 2 1 2 2 4 3 6 11 11 12 12 12 13 15 13 11 10 8 6 7 8 9 10 9 11 16 21 23 25 26 27 28 27 27 27 27 28 28 28 28 27 27 27 27 27 26 25 24 23 22 21 21 20 18 17 17 18 18 18 18 17 16 16 17
2 3 2 6 6 1 1 1 3 5 3 2 2 2 1 1 2 1 1 1 3 2 2 1 1 3 3 2 5 9 10 12 14 14 13 14 14 12 11 9 7 7 8 9 10 10 11 16 20 23 25 26 27 27 26 26 27 28 28 28 28 27 27 27 28 27 27 27 26 25 24 23 23 22 22 20 18 17 17 18 18 18 17 17 17 17
1 2 1 4 4 1 4 4 2 2 4 5 3 3 2 1 1 1 2 1 1 3 3 2 1 4 3 2 4 6 7 9 12 13 12 12 14 14 12 11 9 8 8 9 10 10 11 15 19 21 23 23 24 24 25 26 26 26 27 28 28 27 27 28 28 28 28 27 27 26 25 24 23 22 22 21 20 19 18 18 19 18 18 18 18 18
2 3 2 2 3 5 7 6 3 0 4 6 3 2 2 2 3 4 2 2 1 0 1 1 0 3 3 4 5 3 4 6 8 9 10 10 12 12 12 11 10 8 8 9 10 10 12 17 20 21 22 22 23 24 25 26 26 27 28 28 27 27 28 28 28 28 28 27 27 26 25 24 23 22 22 21 21 20 19 18 18 18 18 18 17 18
3 3 3 3 5 4 5 5 5 5 5 5 2 1 3 4 3 4 4 2 2 2 2 1 1 3 4 6 5 2 2 4 4 5 6 6 7 9 10 10 9 8 7 7 8 9 12 16 18 18 20 21 22 24 25 26 26 27 27 27 27 28 29 28 28 28 27 27 27 26 25 24 23 22 22 22 21 20 19 18 18 17 17 17 16 16
2 1 3 4 5 6 5 5 6 6 4 1 1 0 2 4 1 2 1 2 1 3 3 3 1 4 4 6 6 5 5 5 4 3 4 3 3 6 7 6 7 7 7 6 7 7 10 13 14 17 20 21 23 24 25 26 26 27 27 27 28 29 29 28 28 28 28 28 27 26 25 25 24 23 22 22 22 21 20 19 19 18 17 16 16 16
3 2 3 3 1 2 3 3 2 3 4 2 2 4 4 4 2 3 1 1 2 3 2 4 3 3 4 7 7 6 5 6 5 6 6 4 3 4 5 5 5 6 6 6 6 7 8 10 12 17 19 21 23 24 25 26 27 27 27 28 29 29 29 28 28 27 28 27 27 27 26 25 25 24 24 23 23 22 21 21 20 19 18 17 17 16
4 2 3 5 4 2 4 6 5 3 1 2 4 5 7 4 3 4 3 2 4 1 2 0 3 1 5 8 8 7 5 4 4 6 7 5 4 5 5 5 5 5 4 4 4 6 7 8 10 15 19 21 23 24 26 27 28 28 27 28 29 29 28 27 27 27 27 27 27 27 27 27 27 26 25 24 23 22 22 22 21 20 19 18 17 17
5 2 2 6 5 3 1 6 9 6 3 2 3 6 9 9 3 4 2 3 3 3 1 3 2 3 4 6 7 7 6 5 4 4 5 5 5 6 6 6 6 6 4 3 3 4 6 7 8 12 17 21 22 23 24 25 27 28 28 29 29 29 28 27 26 26 26 26 27 27 28 28 27 27 26 25 24 22 22 22 22 21 20 19 18 18
6 2 3 6 3 1 8 12 13 11 5 4 7 9 10 11 9 8 3 3 2 4 4 3 5 5 4 5 6 6 5 5 5 4 4 5 5 5 6 6 6 5 4 3 3 3 5 6 6 10 15 19 21 22 22 23 23 24 25 26 27 27 28 27 27 27 27 27 27 28 28 28 27 27 26 25 24 23 22 22 22 22 21 20 19 19
4 1 2 5 4 4 9 9 7 11 10 7 9 11 10 10 10 11 9 6 7 8 7 8 9 7 5 5 5 5 5 5 5 5 5 5 5 5 6 5 4 4 3 2 2 1 3 4 5 8 12 16 19 20 21 22 23 24 24 23 22 23 25 26 26 27 27 28 29 29 28 27 27 27 27 26 25 24 23 22 22 22 22 22 21 20
3 0 0 5 4 4 4 3 3 8 10 10 10 11 10 10 9 9 9 7 8 10 10 9 9 6 5 4 5 6 5 6 7 7 7 5 4 4 5 5 5 4 2 2 2 2 2 4 6 7 10 13 16 19 20 22 23 23 23 22 22 23 23 24 25 26 27 28 28 27 27 27 26 26 26 26 26 25 23 22 23 23 23 23 23 22
3 1 1 5 4 2 1 2 6 8 7 9 12 13 11 9 7 6 8 7 5 5 7 7 6 4 3 4 6 7 7 8 9 8 7 6 5 5 4 3 3 3 2 2 2 2 2 3 5 7 10 13 16 18 19 21 21 21 22 22 23 23 22 22 23 23 24 25 24 24 24 24 25 25 25 25 26 26 25 23 23 23 23 24 24 23
2 3 2 3 3 3 4 4 6 6 4 5 6 6 7 8 7 7 9 9 7 3 3 4 4 3 4 5 6 8 9 9 9 7 6 6 6 6 6 4 4 2 1 1 1 1 2 2 3 6 10 13 15 17 18 19 20 20 20 19 18 18 19 20 19 18 17 18 20 22 23 23 22 23 24 25 25 25 25 25 25 24 24 24 23 23
2 3 3 2 3 3 5 6 4 1 0 3 3 2 3 8 9 7 7 7 8 6 3 5 5 5 6 6 6 7 8 8 8 8 7 7 6 6 6 6 5 4 3 3 2 1 2 3 2 4 3 4 8 11 12 15 17 18 18 17 16 17 18 19 20 18 16 15 14 14 16 19 21 22 23 24 24 25 25 25 26 25 25 25 24 24
3 2 1 2 3 3 1 2 2 1 3 4 3 3 1 3 5 5 6 6 7 7 4 6 7 6 7 7 6 7 8 9 10 9 9 9 7 6 7 7 6 5 5 4 3 3 3 3 3 6 6 5 5 5 7 9 12 14 16 17 18 18 17 17 17 17 17 17 16 14 14 15 18 22 24 24 23 23 23 25 26 26 26 25 24 24
6 3 1 2 1 2 3 4 1 3 5 4 4 4 2 3 3 3 4 4 5 5 5 3 7 7 7 7 5 5 6 7 9 9 10 10 8 7 7 7 7 7 6 6 5 5 5 5 3 1 3 5 8 10 10 11 11 12 14 15 16 17 16 16 15 13 11 12 16 20 19 17 18 19 20 20 19 17 17 18 21 24 25 25 23 22
6 4 2 2 1 2 4 2 2 3 4 4 2 2 1 2 1 2 2 2 2 1 3 1 5 7 6 5 4 3 2 4 6 7 10 10 9 9 9 8 9 8 8 9 9 8 8 7 5 4 5 7 10 12 13 14 14 14 15 15 15 15 15 14 14 15 14 13 14 17 19 18 18 18 17 16 17 18 17 16 15 17 18 20 22 21
4 3 3 3 1 2 5 3 1 2 2 4 3 3 2 1 2 4 4 2 3 1 3 2 4 6 3 1 4 4 2 4 5 5 7 9 9 9 9 10 11 10 10 11 12 12 12 11 8 5 4 7 10 11 12 13 14 16 17 17 16 15 14 11 10 15 19 18 17 16 16 16 17 17 17 16 17 19 21 21 19 17 15 15 17 19
5 3 3 4 2 1 4 4 2 2 3 5 5 5 3 0 2 4 5 3 4 2 2 1 2 2 1 1 3 3 3 4 4 3 5 7 8 8 8 9 10 11 12 14 15 15 16 16 14 10 7 8 8 8 10 11 12 13 14 14 13 12 12 12 12 15 17 16 17 18 16 13 14 13 14 17 19 19 18 18 17 18 16 14 15 16
6 5 4 4 2 1 3 3 2 2 2 3 5 5 3 1 4 5 4 4 5 2 1 0 2 1 1 1 1 3 4 3 3 3 4 6 7 9 9 9 10 11 13 15 17 18 19 20 19 16 14 12 9 6 8 10 10 10 10 10 10 10 10 12 13 14 14 13 15 16 13 10 9 8 11 17 18 14 13 14 14 15 15 13 13 14
4 4 3 3 3 2 2 2 1 2 2 3 4 6 3 1 4 4 1 5 3 1 1 2 3 3 2 2 2 3 4 4 4 4 5 6 7 8 9 11 12 13 14 15 16 19 21 21 21 21 18 15 13 10 10 12 13 13 12 11 10 9 8 8 8 10 10 9 9 8 7 6 7 8 12 17 16 12 12 14 16 17 16 13 12 13
1 2 2 2 2 2 2 2 0 2 2 2 3 5 2 2 1 2 4 3 2 4 4 3 4 5 5 5 5 4 4 5 6 5 6 6 5 5 8 11 14 15 16 17 18 19 20 21 21 21 20 17 16 14 13 16 17 16 16 15 13 9 7 7 6 7 7 5 2 1 1 2 4 6 9 11 11 11 13 14 14 15 12 8 7 9
2 2 1 0 1 2 2 2 1 1 3 1 2 2 1 1 3 4 2 2 3 4 5 4 5 5 6 7 7 7 7 7 6 5 5 5 5 5 8 10 12 13 15 17 18 19 21 21 21 21 21 20 18 17 17 20 20 19 19 17 13 9 8 8 7 8 8 8 7 7 6 4 2 2 4 4 3 5 7 9 10 10 8 6 6 6
2 2 1 2 2 2 2 1 3 3 4 3 0 2 2 2 2 3 3 3 2 2 3 4 5 6 6 7 8 7 7 6 5 5 5 5 4 6 8 10 12 13 14 15 15 18 20 21 21 22 22 21 20 19 19 21 21 21 20 17 13 13 13 12 11 10 10 11 11 11 11 10 8 5 4 3 2 1 2 4 6 7 8 7 8 8
2 3 4 3 2 3 4 4 4 3 3 3 1 2 2 1 1 3 4 3 2 1 1 4 5 5 5 7 7 5 5 5 5 4 4 4 4 5 7 9 11 12 13 14 16 18 20 20 21 22 22 21 21 20 20 20 20 21 19 15 14 16 16 15 14 14 15 16 16 15 16 15 14 11 10 8 6 5 3 2 6 8 9 9 11 13
2 1 3 3 1 1 1 2 1 2 3 4 2 0 1 2 2 3 4 4 3 2 2 4 5 5 4 5 6 5 4 5 5 5 4 4 4 5 8 9 10 11 13 14 15 16 17 19 20 20 20 20 20 19 19 19 19 19 17 15 15 15 15 16 16 16 16 16 16 15 16 16 16 14 13 11 9 10 12 12 13 13 13 14 15 16
2 2 4 3 2 2 0 2 3 3 4 4 4 3 4 5 4 3 4 4 3 4 4 4 5 5 4 5 6 5 4 5 6 5 4 4 4 4 7 9 8 9 11 11 12 13 15 17 18 18 19 18 17 17 18 18 17 16 14 14 14 13 13 15 15 14 12 12 12 12 12 13 14 13 12 11 11 13 16 16 16 16 16 15 15 14
1 3 4 3 3 2 2 4 4 3 3 3 3 3 3 5 5 4 4 4 5 5 5 5 5 5 4 4 6 6 4 4 6 5 4 3 3 4 6 7 7 8 9 10 11 13 15 16 16 16 16 16 15 15 16 15 14 12 11 12 12 11 11 12 13 13 13 10 9 8 9 10 11 11 11 11 11 13 15 14 14 14 14 13 12 11
2 4 3 3 3 2 1 3 2 2 4 5 4 3 2 3 4 5 5 5 6 6 6 6 6 5 6 5 5 6 5 3 4 5 4 3 3 5 5 6 6 8 9 10 11 13 14 15 14 14 14 13 12 13 13 13 11 10 10 11 10 10 10 11 10 11 12 11 9 8 8 9 10 10 11 11 12 13 14 12 11 11 10 9 8 8
3 3 2 4 4 1 4 5 4 3 1 2 1 2 2 2 5 6 6 5 6 5 6 7 7 8 8 7 6 7 6 3 3 6 5 4 3 4 6 6 6 8 9 10 10 10 11 12 11 11 11 10 10 11 12 12 11 10 10 10 10 10 11 11 10 10 10 10 9 9 8 8 9 10 11 11 13 14 14 13 12 11 10 9 7 5
4 5 6 6 5 5 6 7 6 5 3 4 4 3 3 3 6 7 5 5 5 4 6 7 7 6 7 7 7 9 7 4 6 7 6 5 5 5 5 5 7 8 9 9 9 9 10 10 9 9 9 9 9 9 10 11 12 12 11 10 10 10 10 10 11 11 9 9 9 9 8 8 9 10 11 12 12 12 13 13 12 11 10 10 9 7
Wind_Direction
117 115 219 206 210 207 210 217 215 155 111 118 116 113 164 154 121 110 125 175 166 125 110 42 155 166 164 164 161 151 151 164 174 176 177 179 179 179 184 188 189 196 200 187 178 173 169 169 175 181 184 186 185 188 191 190 190 191 192 193 192 190 187 183 178 176 175 175 176 177 177 175 173 174 175 175 174 168 165 167 169 165 163 166 169 175
99 161 225 219 211 213 218 229 250 309 67 95 131 141 137 196 133 83 116 150 183 111 102 41 84 167 172 164 161 144 144 171 184 183 186 186 185 182 184 189 192 194 181 165 167 167 164 163 170 177 181 183 184 188 192 192 191 193 195 195 191 187 185 181 178 176 175 177 178 180 182 182 182 183 182 179 176 173 170 173 174 172 171 174 176 182
58 226 246 232 210 221 255 263 252 252 256 88 115 127 181 222 121 87 100 95 20 24 130 128 117 147 211 163 170 146 129 173 199 196 195 189 187 187 187 189 186 177 163 161 162 163 162 161 166 174 179 183 186 190 193 193 192 193 196 195 190 186 183 179 178 178 176 178 180 182 185 185 186 189 188 186 184 183 184 184 185 186 185 183 185 189
206 249 249 211 159 160 282 294 207 214 234 183 126 124 202 198 144 115 117 112 75 98 136 141 118 84 331 313 241 264 42 269 252 224 212 197 192 194 191 183 176 172 169 169 166 163 162 160 165 173 179 182 185 190 194 194 194 194 196 195 190 186 184 181 180 179 178 176 177 181 185 187 191 195 196 198 198 196 195 196 198 200 198 197 198 204
230 245 193 125 131 159 203 302 203 201 246 243 179 185 199 182 160 97 115 125 105 117 134 128 103 287 240 199 233 246 261 288 282 232 217 213 206 196 189 181 175 173 172 170 168 165 163 164 169 174 178 181 184 190 194 195 194 194 195 194 191 188 185 184 182 182 181 179 180 183 187 192 200 206 208 210 209 204 202 203 206 207 209 210 211 218
263 250 168 123 140 159 168 256 219 190 247 301 217 204 187 157 141 117 127 127 96 181 162 149 154 228 208 204 219 222 241 275 289 231 210 211 207 191 187 186 179 175 173 172 170 170 170 170 169 172 177 180 184 191 195 196 195 193 193 192 191 190 188 188 187 186 186 187 189 190 192 195 198 204 211 213 209 204 203 203 206 209 213 217 219 223
276 260 165 165 203 195 211 258 224 164 157 298 245 198 151 128 130 135 144 138 130 197 190 184 178 171 195 217 219 213 228 251 276 261 217 205 197 192 193 186 177 176 174 175 173 171 172 170 168 172 178 182 187 192 194 196 195 193 192 191 191 193 192 192 192 192 193 195 198 197 198 200 199 204 211 212 209 206 206 205 208 212 213 218 222 224
217 318 182 185 203 200 215 254 223 154 141 267 275 141 126 122 130 143 141 108 27 88 170 218 154 113 208 218 211 205 220 242 259 261 227 204 196 195 196 186 178 178 173 172 174 173 174 174 174 176 180 184 188 191 192 194 194 194 193 192 193 195 195 195 196 198 200 200 201 201 203 205 206 211 211 207 208 211 212 214 217 220 217 217 219 221
210 175 211 201 198 202 215 234 202 149 129 270 61 82 101 106 109 129 126 82 27 58 207 211 161 153 248 218 196 197 215 231 238 242 226 204 198 196 194 187 182 180 176 173 174 176 178 180 182 182 181 183 186 189 191 193 194 195 195 194 195 197 197 197 199 202 204 204 203 204 205 208 211 217 212 205 207 211 213 216 220 225 222 218 218 219
247 211 195 167 164 210 226 226 188 150 131 127 96 79 66 66 62 54 78 79 65 138 217 194 171 195 267 203 185 196 212 222 224 227 222 204 197 195 193 188 181 179 179 178 177 178 181 185 188 185 180 180 184 188 192 192 194 195 196 196 198 199 199 200 201 203 205 206 207 208 208 209 210 211 211 209 209 210 213 216 219 224 225 222 219 219
271 243 167 155 189 206 210 213 175 146 137 124 99 79 63 56 47 31 27 78 117 255 236 173 171 195 282 212 197 197 197 208 215 212 208 201 196 195 193 188 181 177 179 181 180 181 184 186 187 183 178 178 181 185 188 190 192 194 196 198 199 201 201 202 203 205 207 208 209 211 211 211 210 207 207 209 209 209 212 215 219 223 226 225 220 217
314 318 184 232 209 156 104 54 85 137 137 123 102 102 84 28 12 30 4 36 176 258 291 164 164 176 236 233 209 200 184 193 206 203 191 193 195 195 192 188 183 179 179 179 181 180 178 177 178 180 178 177 177 180 184 188 191 193 195 197 198 201 203 203 204 206 208 209 210 213 215 217 216 212 210 211 213 213 214 215 219 223 225 223 219 214
307 225 245 288 190 133 109 73 66 117 128 106 111 120 99 24 9 13 330 333 231 243 295 152 163 180 234 243 207 200 197 198 200 195 189 190 191 192 190 186 182 179 179 179 177 174 171 171 175 178 178 176 177 180 184 187 189 191 193 195 197 199 202 204 204 206 208 210 211 214 217 220 222 222 220 220 222 222 222 220 220 222 222 220 216 212
321 300 331 36 170 165 137 119 123 166 173 150 144 140 133 114 90 238 270 302 269 268 66 135 167 210 263 259 206 197 202 203 196 191 189 185 188 192 188 182 178 178 180 178 176 173 174 178 178 179 179 179 181 183 184 186 188 190 192 194 197 199 202 204 205 208 209 209 211 215 219 222 224 226 226 225 227 228 228 226 224 223 222 221 218 216
40 320 287 166 176 193 167 157 164 165 163 174 166 143 145 151 158 187 206 210 236 283 87 128 168 203 208 262 247 209 201 195 188 192 190 180 182 181 177 177 175 179 181 177 177 178 180 182 181 181 181 183 185 185 185 186 188 189 191 194 196 198 200 203 205 208 208 209 212 217 222 224 228 231 229 228 230 231 230 229 227 225 224 225 225 225
134 264 249 245 194 174 186 186 152 134 132 199 126 113 161 177 153 126 172 183 160 128 165 170 221 230 202 247 282 212 186 179 175 191 196 179 164 154 164 179 179 181 182 177 178 182 185 184 182 182 184 186 187 186 186 188 189 190 193 195 197 200 201 203 205 207 208 211 215 220 222 226 231 233 231 230 231 232 232 231 230 227 227 230 234 235
23 279 263 303 306 181 165 134 137 132 139 157 134 172 218 175 130 109 137 201 99 114 239 203 253 295 303 283 273 127 159 172 176 190 197 190 166 161 170 181 186 184 180 180 181 182 184 184 185 186 186 186 187 188 189 191 193 194 195 196 197 200 202 204 207 208 209 212 218 222 224 227 229 231 232 231 231 232 232 232 233 232 231 234 239 240
169 290 288 1 16 254 126 114 131 196 138 129 188 202 193 53 88 107 109 7 55 208 264 218 245 285 306 287 235 149 170 183 186 190 190 190 185 183 181 178 187 188 181 182 182 182 183 183 186 188 189 189 189 190 192 195 197 197 198 199 199 200 203 206 208 210 210 213 218 222 225 226 227 228 229 230 231 233 234 234 235 234 235 238 241 240
112 324 298 350 63 272 59 100 133 283 105 115 183 191 113 77 299 87 125 150 125 227 279 257 260 256 206 218 197 183 189 189 189 188 188 191 190 191 187 175 181 185 180 180 180 182 184 186 188 189 190 192 192 193 195 196 197 198 200 202 203 204 207 208 210 211 213 215 218 222 224 226 227 226 226 227 231 233 236 238 237 236 238 240 240 238
97 65 287 320 355 333 13 102 171 237 304 69 92 148 108 150 198 186 159 160 151 206 261 285 304 264 233 231 197 196 197 187 185 188 191 193 189 188 187 175 170 178 178 180 181 182 185 188 191 191 191 192 194 196 197 196 196 198 201 203 205 207 208 208 209 211 214 216 219 221 223 225 227 226 227 230 233 234 237 239 238 238 239 241 240 239
76 64 295 318 340 357 250 218 180 199 199 104 108 196 218 185 174 193 210 147 133 158 200 208 289 277 276 265 217 210 200 187 186 189 193 194 188 186 185 175 165 173 180 181 182 182 184 188 192 194 195 194 195 196 196 196 198 200 201 203 205 206 207 208 210 211 214 217 219 221 223 226 227 228 230 233 236 238 239 239 239 240 241 243 242 241
85 77 17 333 337 262 240 269 296 210 166 129 131 182 219 275 132 176 284 306 116 135 171 173 230 279 292 299 263 239 206 195 192 189 191 193 190 187 184 177 166 168 181 182 180 181 182 186 191 195 196 195 194 195 196 197 198 199 202 204 205 206 207 210 210 211 214 216 218 221 224 227 229 230 232 234 236 239 240 240 240 241 242 244 244 244
115 108 69 331 278 253 262 285 314 167 120 109 111 149 171 175 156 166 224 265 254 149 170 138 112 271 300 330 305 267 199 192 193 191 191 191 192 189 185 180 168 163 176 179 178 180 181 185 190 193 195 195 195 196 196 198 199 201 204 204 204 206 209 211 212 213 214 216 219 222 224 227 230 231 233 233 235 237 239 239 240 242 244 245 245 245
69 75 52 339 300 304 307 325 4 34 67 92 107 124 173 216 208 182 185 179 191 207 164 101 296 269 323 347 334 334 99 135 158 179 185 181 184 185 184 181 168 160 168 174 176 178 180 183 186 190 194 196 196 197 197 198 200 202 204 205 206 208 211 212 213 213 214 216 219 222 223 225 228 229 231 231 233 235 237 238 239 243 245 245 246 245
70 79 68 35 342 345 352 3 16 3 2 98 189 357 249 266 267 175 193 74 175 230 158 128 240 268 315 349 1 23 58 79 88 113 136 137 145 164 170 168 162 156 156 165 171 172 176 180 184 189 194 196 197 198 198 199 201 203 205 206 208 211 213 213 213 213 213 216 218 219 221 223 224 226 228 229 231 234 237 238 241 245 245 244 245 246
94 110 87 82 25 335 320 321 336 302 304 319 333 352 340 300 222 175 188 93 208 257 94 119 198 254 322 354 11 20 56 82 82 94 106 101 98 129 138 138 146 147 146 161 169 172 177 180 185 190 193 197 198 198 198 200 202 204 206 208 211 213 213 213 213 213 213 214 215 217 220 221 222 224 226 228 230 234 237 239 241 244 245 245 248 249
87 73 90 119 145 196 252 266 276 290 323 334 323 348 4 335 218 159 120 159 190 167 58 110 194 130 359 2 10 7 27 69 89 106 116 118 108 108 113 115 120 119 121 141 157 170 179 182 188 191 194 198 200 200 200 201 203 204 205 208 212 213 213 213 213 212 213 214 214 216 219 221 223 225 227 229 231 235 239 241 242 243 243 245 251 251
90 59 103 124 149 205 343 344 338 352 40 29 1 17 20 11 35 110 129 237 204 135 169 259 167 100 31 14 19 15 22 40 54 83 108 118 114 114 115 111 110 106 100 105 120 155 180 185 188 190 193 197 200 201 202 203 204 206 207 209 211 212 213 213 211 211 213 214 214 217 220 222 224 226 228 231 233 236 239 241 242 241 241 245 250 251
103 126 167 123 116 71 54 31 359 353 358 16 43 48 36 31 45 64 60 262 199 138 181 177 116 94 55 31 22 21 35 45 47 58 83 100 100 107 115 115 111 106 105 112 112 141 175 185 188 189 193 197 197 199 201 203 206 208 210 212 211 211 212 212 211 211 212 213 216 220 222 223 224 226 229 231 233 235 238 241 242 241 241 244 248 249
102 138 179 113 73 39 65 61 2 347 343 350 37 50 44 46 52 56 62 77 91 99 117 112 97 76 50 33 21 25 38 50 57 58 66 85 98 112 125 130 128 120 117 119 95 110 153 158 164 176 186 193 195 196 197 199 203 206 210 212 213 213 213 211 211 211 211 214 218 222 223 224 225 226 228 229 232 235 237 240 241 242 243 244 246 249
99 107 216 97 77 4 33 71 333 335 328 331 15 39 40 44 48 43 50 68 81 93 106 102 88 67 48 43 42 41 42 51 57 55 57 63 78 107 127 144 149 150 138 99 45 40 106 128 135 146 160 176 189 193 195 198 201 203 206 209 211 214 214 213 213 213 213 216 220 222 223 225 226 227 228 230 232 235 237 241 243 244 245 246 248 251
104 144 33 77 87 279 320 357 305 301 291 313 358 21 23 32 51 50 46 45 51 89 106 94 78 63 47 56 61 54 52 55 52 48 51 49 48 67 88 106 121 136 143 131 88 65 99 127 134 139 145 157 172 183 189 194 196 198 203 206 210 212 212 213 216 216 216 217 219 222 223 225 227 228 230 233 235 237 238 242 245 247 248 248 249 251
118 152 170 100 99 195 182 186 261 285 270 278 326 3 13 25 45 54 51 43 28 32 86 77 68 67 61 67 68 60 57 57 53 46 45 43 44 53 58 58 56 54 85 138 173 162 179 179 150 145 143 147 161 174 184 190 192 195 199 200 202 203 203 206 210 215 218 220 222 223 223 225 227 231 234 236 237 240 241 242 246 249 250 250 250 251
124 142 180 130 106 188 196 183 206 312 16 235 264 286 16 35 42 46 45 33 22 24 64 82 74 69 69 70 66 61 57 53 52 49 47 46 44 47 49 46 39 33 33 14 346 320 293 288 249 217 193 146 148 157 168 182 188 190 191 191 191 193 198 202 203 205 210 216 222 227 228 226 225 228 234 238 239 242 242 243 246 249 250 250 251 253
124 102 138 99 109 182 223 48 46 327 245 244 286 300 303 42 58 67 55 34 23 15 30 77 81 71 71 72 61 59 61 58 54 49 47 49 46 46 49 43 36 34 29 19 10 8 352 333 275 249 256 251 217 196 182 177 176 178 181 184 186 187 194 200 201 203 208 211 216 229 245 252 244 234 231 235 240 242 243 246 248 250 252 253 253 255
135 121 106 75 93 152 83 52 326 266 264 284 327 330 333 18 37 70 57 29 27 6 342 42 86 86 83 81 62 51 62 66 60 47 41 45 46 48 50 45 41 38 30 28 31 28 19 11 24 123 200 218 218 217 207 186 174 171 171 175 181 184 189 195 198 206 223 228 226 228 235 251 265 259 241 229 230 234 238 247 253 253 252 251 251 252
130 136 116 73 54 137 111 105 288 313 309 300 329 347 354 12 21 107 96 323 348 25 303 301 104 101 98 85 38 10 36 66 62 44 34 35 39 45 48 43 42 41 38 41 43 40 33 22 29 79 139 173 186 193 191 183 179 176 169 167 171 174 176 182 192 209 229 245 246 237 229 231 248 264 258 234 221 223 229 239 252 258 257 252 247 243
103 147 159 134 125 107 102 95 13 8 291 256 253 285 305 265 188 136 109 311 285 213 258 252 116 106 113 67 341 336 10 57 52 35 26 28 31 40 47 44 40 39 38 42 45 43 41 40 38 49 112 144 156 169 173 170 170 168 164 164 169 172 172 178 203 221 228 238 247 245 236 227 229 243 253 247 236 234 235 236 239 244 251 257 251 240
50 58 103 106 98 111 113 122 166 194 230 242 245 271 307 277 171 107 67 334 272 250 283 267 143 121 136 282 333 1 63 73 61 33 26 35 34 32 39 42 39 39 39 42 46 46 47 51 54 50 57 81 103 134 150 155 156 150 148 156 166 172 174 177 196 212 221 234 245 243 237 231 226 228 240 248 246 242 239 237 236 237 240 250 258 250
26 25 52 80 90 109 108 118 189 211 225 240 250 280 312 150 128 87 57 281 261 270 323 130 156 168 118 104 23 46 70 92 109 79 44 52 49 39 41 43 36 34 35 38 45 52 53 55 56 52 43 41 52 94 134 147 146 136 132 139 145 151 162 173 185 197 208 223 236 240 239 236 235 231 236 243 243 233 227 234 239 240 239 241 252 256
5 21 65 108 107 79 92 123 213 245 234 233 263 290 307 96 94 83 191 235 225 124 117 137 147 158 137 110 79 66 69 89 108 94 64 63 59 46 47 52 49 45 43 44 49 55 56 55 55 53 45 42 51 73 103 122 123 118 118 115 106 108 132 156 168 175 184 200 220 235 244 250 253 246 240 244 241 224 218 227 231 232 235 237 243 249
13 39 47 80 83 75 104 116 6 282 234 229 288 299 314 98 130 208 214 211 134 118 127 128 133 137 119 96 88 93 97 93 91 83 68 65 63 50 45 50 52 51 50 52 55 59 59 56 55 55 52 54 65 79 97 106 103 97 97 93 84 90 117 129 126 125 126 127 114 32 10 291 264 246 240 247 246 230 224 227 229 231 235 233 231 237
139 111 33 152 144 102 76 71 67 216 226 275 339 336 44 124 204 208 171 100 97 115 115 105 105 108 105 99 97 100 102 93 84 79 70 62 62 57 51 54 57 55 52 52 54 60 64 62 58 57 57 61 67 75 84 89 84 78 77 76 75 83 95 93 85 80 80 78 66 54 56 63 86 191 208 223 238 240 234 231 231 231 223 202 199 220
133 135 183 209 182 128 100 153 206 212 239 271 227 175 208 227 203 172 126 90 80 87 89 88 89 92 103 110 109 107 105 97 89 84 73 59 52 53 52 55 61 64 64 63 63 65 68 67 65 64 64 65 68 70 74 77 76 72 70 68 69 73 71 69 71 74 76 76 74 74 78 80 81 91 106 111 102 343 284 253 238 224 208 194 189 191
213 184 174 170 167 166 177 207 226 238 261 278 228 203 239 319 82 122 117 101 87 80 96 99 98 99 105 111 110 104 102 100 92 83 79 69 54 57 61 61 65 71 74 74 74 73 72 72 71 70 67 66 68 69 69 71 72 70 68 67 70 74 75 77 80 81 81 79 80 83 86 83 79 74 70 68 64 60 72 170 194 188 179 169 163 160
261 162 124 121 136 203 196 225 300 334 328 334 354 16 52 41 53 90 98 95 101 112 108 111 116 120 118 115 111 102 105 114 103 86 86 82 61 64 74 73 72 79 82 80 78 77 77 77 76 73 68 65 65 66 65 66 68 69 69 69 69 72 77 84 87 86 81 76 76 78 80 80 78 75 72 73 77 86 97 112 129 138 143 145 147 149
273 106 88 88 94 92 91 303 330 335 311 323 1 36 52 47 38 56 86 102 114 109 106 112 117 117 111 110 113 112 114 119 111 100 94 91 82 79 83 82 79 81 84 84 82 82 83 81 78 75 72 68 64 64 64 63 64 67 67 66 66 67 73 78 81 82 78 79 84 84 83 85 85 82 82 86 90 97 102 108 116 123 130 135 139 141
201 115 97 90 90 112 216 259 295 317 306 329 21 59 67 59 53 54 73 98 105 100 102 106 108 112 110 107 113 114 109 108 113 115 110 102 112 118 104 97 97 96 91 89 89 88 86 83 81 80 79 76 72 70 67 63 60 60 61 61 61 66 71 71 69 67 66 74 90 96 97 97 93 88 89 94 97 98 100 104 110 117 125 132 138 141
122 98 126 129 90 72 223 245 289 358 1 1 24 67 87 86 82 72 66 78 88 91 90 82 79 93 107 113 115 107 97 89 104 114 114 112 135 151 139 118 110 107 101 96 95 94 91 88 86 84 82 80 79 76 72 68 62 56 55 54 52 58 66 66 61 58 55 57 70 87 98 97 89 84 88 95 100 99 97 95 96 101 110 122 136 149
108 112 144 118 104 147 216 204 177 130 97 288 259 125 137 136 106 88 73 69 75 87 97 89 77 78 86 96 108 109 102 86 88 100 101 95 114 158 167 149 128 119 111 106 101 98 95 93 91 89 86 82 78 74 70 67 64 59 55 51 48 53 58 57 54 53 50 47 54 69 84 88 88 92 97 100 102 101 99 95 90 88 90 92 98 122
152 171 174 148 158 215 213 186 162 134 144 217 217 170 165 145 105 94 93 91 86 94 105 102 95 84 74 74 93 108 113 106 95 93 84 72 86 124 158 158 140 128 121 118 113 105 101 99 95 92 90 87 80 73 67 62 60 56 55 54 51 50 50 48 46 46 44 42 44 50 62 76 89 101 109 111 110 108 107 103 98 92 88 85 83 90
Height
783 793 799 798 799 799 797 794 793 794 794 798 805 809 810 812 814 811 810 804 798 808 817 816 815 814 810 808 806 805 805 807 810 811 812 813 814 815 816 816 816 816 814 813 816 819 821 823 824 826 827 829 831 833 834 836 837 839 840 841 842 844 847 848 849 851 852 854 855 857 859 860 861 862 863 864 865 866 867 868 869 870 870 871 872 872
786 797 799 792 791 792 792 792 793 794 795 798 803 808 811 813 815 812 810 807 800 809 819 815 816 817 812 809 807 805 807 809 809 810 812 812 813 814 815 816 815 814 813 814 816 819 821 823 824 826 827 828 830 832 834 835 837 839 840 841 842 844 846 848 849 850 852 853 855 856 858 860 861 862 863 864 865 866 867 868 869 870 870 871 872 873
796 799 794 788 789 790 791 792 793 795 797 801 804 809 813 812 813 814 812 810 809 816 824 819 820 822 815 811 809 807 808 809 807 807 808 809 812 813 814 814 815 814 814 815 816 818 821 823 824 826 827 828 830 831 833 835 837 839 840 841 842 844 846 847 849 850 852 854 855 857 858 860 861 862 863 864 865 866 867 868 869 870 871 871 872 873
803 797 788 787 789 791 793 793 793 795 798 802 805 810 813 811 813 816 815 816 813 815 822 822 824 826 818 815 812 809 808 808 807 806 805 806 808 810 810 811 813 814 815 816 816 818 820 822 824 825 826 828 830 831 833 835 837 838 839 841 842 844 846 847 849 851 852 854 856 857 859 860 861 862 863 864 865 866 867 868 869 870 871 871 872 873
799 790 784 786 788 790 793 794 793 797 801 802 803 806 808 809 812 813 814 816 815 815 817 821 833 833 822 821 818 810 809 809 807 806 806 806 806 807 808 809 810 811 813 815 816 817 819 821 823 825 826 827 829 831 832 833 835 837 839 840 842 844 845 847 849 851 853 854 856 857 858 860 861 862 863 864 865 865 866 867 868 869 870 871 873 873
791 784 782 786 788 789 792 795 793 796 802 804 800 798 800 805 811 813 814 816 821 826 817 816 837 840 825 823 821 813 812 812 808 807 806 806 806 807 809 810 809 809 810 811 813 815 817 820 822 824 826 827 828 830 831 833 835 837 839 840 842 844 845 847 849 851 853 854 855 856 857 859 860 861 862 863 864 865 866 867 868 869 870 871 872 873
787 782 780 785 787 788 792 794 791 792 804 808 797 791 795 803 811 814 815 817 824 829 816 810 829 839 831 825 819 815 816 814 810 809 806 805 806 807 808 809 809 809 809 809 811 813 815 818 821 823 825 825 826 828 830 833 835 837 838 840 842 843 845 847 849 851 852 853 855 856 857 858 859 860 861 862 864 865 866 867 868 869 870 871 872 873
785 783 784 784 786 790 794 794 789 788 801 807 794 790 797 804 812 815 816 821 823 822 820 816 821 834 836 824 814 814 818 817 812 810 806 804 805 805 806 807 807 807 808 809 811 812 813 816 818 821 823 823 825 827 830 832 834 836 838 840 841 843 845 847 849 850 851 853 854 855 856 858 858 859 861 862 863 864 866 867 868 869 870 871 872 873
782 785 786 784 788 793 791 787 783 784 798 804 794 794 800 803 809 812 816 824 823 823 829 824 819 832 835 818 810 815 820 819 814 809 806 803 803 803 804 805 805 805 805 806 808 810 812 814 816 818 820 822 824 826 829 830 833 835 837 839 841 843 844 846 848 849 851 852 854 855 856 857 858 859 860 861 863 864 865 866 867 868 869 870 871 872
779 778 777 780 787 789 783 779 778 781 795 799 793 796 803 806 811 815 820 824 826 829 831 824 820 832 833 818 816 820 820 817 811 806 804 801 801 801 802 803 803 804 805 805 806 807 809 811 814 816 819 822 824 825 828 830 832 834 836 838 840 842 844 845 847 849 850 852 853 854 855 856 858 859 860 861 862 863 864 866 867 868 869 869 870 871
775 771 772 776 778 776 774 777 777 779 788 791 793 803 810 813 816 819 821 823 832 835 826 818 818 829 832 820 813 812 808 807 806 805 802 800 799 800 800 801 802 803 804 804 805 806 808 810 813 816 819 821 823 825 828 829 831 833 835 837 839 841 843 844 846 848 849 851 852 853 855 856 857 858 859 860 861 863 864 865 866 867 868 869 870 871
776 775 775 769 765 768 774 781 781 779 782 786 795 806 813 820 821 822 824 826 837 838 824 815 816 828 834 816 803 800 794 795 799 799 799 798 798 797 798 799 800 801 802 803 805 806 808 811 814 817 818 821 823 825 827 828 830 832 833 836 838 840 842 843 845 847 848 850 851 852 854 855 856 857 858 859 860 862 863 864 865 866 867 868 869 870
775 772 772 766 762 766 775 789 794 789 787 790 799 806 817 832 836 836 840 839 839 834 822 817 816 826 826 804 793 795 790 788 789 790 792 792 793 794 795 797 798 799 800 802 804 806 808 811 813 815 817 820 822 823 825 827 828 830 832 834 836 838 840 842 844 846 847 849 850 851 853 854 855 856 857 859 860 861 862 863 864 865 866 867 867 868
780 772 769 770 769 764 769 789 804 801 796 796 800 805 816 836 846 847 850 849 841 831 820 817 819 824 816 794 785 786 783 782 783 783 785 786 788 790 791 794 796 798 799 800 803 805 807 809 810 813 815 817 820 821 824 825 827 829 830 833 835 836 839 841 843 844 846 848 849 851 852 853 854 855 857 858 859 860 861 862 863 864 865 866 866 867
796 789 774 771 771 766 765 774 783 787 793 793 789 794 805 817 827 835 841 841 837 832 824 820 822 820 810 793 781 777 776 777 781 782 782 782 784 786 788 792 795 797 798 799 801 802 804 806 808 811 813 815 817 819 822 824 825 827 829 831 833 835 837 839 841 843 844 846 848 850 851 852 854 855 856 857 858 859 860 861 862 864 864 865 866 867
800 794 770 762 763 763 765 764 764 776 794 793 785 793 800 798 802 818 830 828 827 832 829 824 818 805 794 785 778 776 777 778 781 784 784 785 784 785 789 792 793 795 796 797 799 801 802 804 806 809 811 814 816 818 820 822 824 825 827 829 831 833 835 837 839 841 843 845 847 848 850 851 853 854 855 856 857 858 859 860 861 863 864 864 865 866
798 789 765 760 763 760 762 764 763 774 790 793 792 796 792 783 788 810 826 823 823 832 827 819 813 800 791 786 779 779 781 781 784 785 786 788 786 786 789 790 792 793 794 795 797 798 800 803 805 807 809 812 814 816 818 820 821 823 825 827 829 832 834 836 838 839 841 843 846 847 849 850 852 853 854 855 856 857 859 860 861 862 863 863 864 865
792 788 768 764 770 763 756 761 765 766 774 788 796 789 782 784 785 796 819 827 830 834 824 817 815 807 803 798 787 785 786 786 785 784 786 789 788 788 788 789 790 791 791 793 794 796 798 801 803 806 808 810 811 814 815 817 819 821 823 825 828 830 832 834 836 838 840 842 844 846 847 849 850 851 853 854 855 857 858 859 860 861 862 862 863 864
784 790 776 765 772 768 757 765 777 771 765 775 783 776 782 802 803 798 812 824 829 832 823 818 817 808 802 797 790 789 788 785 785 784 785 787 788 788 787 788 789 789 791 792 793 796 797 799 801 803 806 808 810 812 814 816 818 820 822 824 826 828 829 832 834 836 838 840 842 844 846 848 849 850 852 853 854 855 856 857 858 859 860 861 862 863
779 791 787 770 767 769 766 772 785 782 770 769 775 776 782 798 803 798 801 805 814 824 822 818 815 802 791 786 783 783 781 780 783 784 783 783 784 785 785 786 788 789 791 791 792 794 795 797 800 801 804 806 808 811 813 815 817 819 821 823 825 827 828 831 833 834 836 838 840 842 844 846 848 849 851 852 853 854 855 856 857 858 859 860 861 862
776 789 796 780 769 776 779 776 777 779 777 777 783 789 788 787 789 792 794 794 801 813 818 817 811 797 784 779 777 775 773 773 775 778 779 779 779 781 781 783 786 788 789 789 790 791 793 795 798 800 802 804 806 809 811 813 815 817 819 821 823 825 827 829 830 832 834 836 839 841 842 844 846 847 849 850 851 852 853 854 855 856 858 858 859 860
778 788 797 792 783 783 780 772 770 771 772 776 784 791 793 792 795 800 802 797 794 801 807 808 805 796 783 776 774 771 770 769 770 772 775 776 776 777 778 779 782 785 786 787 788 789 791 794 796 799 801 804 806 808 810 812 814 816 818 819 821 823 825 827 828 830 832 834 836 838 840 842 844 845 847 848 850 851 852 853 854 855 856 857 858 859
775 785 794 795 790 784 775 769 769 768 766 771 779 786 792 795 797 801 802 798 795 796 797 799 802 795 780 774 772 769 766 767 768 771 773 774 774 775 776 777 779 782 783 785 785 787 789 792 794 797 800 802 804 806 808 811 812 814 816 817 820 821 823 825 826 828 830 832 834 836 838 840 842 843 845 846 848 849 850 852 853 854 855 855 857 858
776 790 796 794 786 779 773 769 768 767 767 773 779 782 788 790 786 786 787 786 790 794 795 799 805 795 779 774 772 768 766 767 769 771 773 774 774 775 776 777 779 781 783 783 784 786 788 790 793 796 798 801 803 805 807 809 810 812 814 816 818 819 821 823 825 827 829 831 832 834 836 838 840 841 843 844 846 847 849 850 851 853 853 854 855 856
781 794 799 802 802 794 787 785 784 782 778 778 782 784 786 786 781 780 781 782 790 794 791 795 805 799 783 776 775 772 771 771 772 772 773 775 776 776 777 778 779 781 783 784 785 786 787 790 792 794 796 798 800 803 805 807 809 811 812 814 816 817 819 821 823 825 827 829 831 833 834 836 838 839 841 842 844 846 847 849 850 851 852 853 854 854
782 795 798 811 825 823 817 810 803 798 790 785 788 790 789 787 783 780 782 786 792 795 790 793 802 799 787 781 781 778 776 776 775 774 775 776 778 778 778 779 781 781 783 785 785 786 787 788 790 792 794 796 798 800 802 805 807 809 810 812 814 815 817 819 821 823 825 827 829 831 832 834 836 837 839 840 842 844 845 847 848 849 850 851 852 853
785 798 797 807 821 826 826 817 802 798 799 797 796 795 792 789 784 781 783 786 788 791 794 798 799 798 794 790 788 784 781 780 779 777 778 779 779 779 780 781 781 782 784 785 786 787 788 788 789 791 792 794 796 798 800 802 804 806 808 810 812 814 816 817 820 822 824 826 827 829 830 832 834 835 837 839 840 842 843 845 846 847 849 850 850 851
786 798 798 803 814 818 819 815 805 801 804 804 801 797 794 790 786 784 787 790 787 786 795 800 799 800 800 795 791 789 787 784 782 780 780 780 780 780 781 782 783 784 785 786 786 787 788 789 789 790 791 793 795 797 799 801 803 804 806 808 810 812 814 816 818 820 822 824 825 827 828 830 832 833 835 837 839 840 842 843 844 845 847 848 848 849
783 796 797 798 810 818 815 815 815 810 807 804 799 795 794 793 793 792 796 799 793 788 792 798 799 800 799 795 792 791 788 786 785 782 780 780 781 781 782 784 785 786 786 787 786 786 787 788 788 789 790 792 794 796 798 800 802 804 806 807 809 811 812 814 816 818 820 822 823 825 826 828 830 832 834 835 837 838 840 841 842 843 844 846 846 847
783 793 796 796 809 817 813 814 817 816 815 810 800 795 794 794 795 794 795 796 794 793 795 797 798 799 798 796 794 790 788 786 785 782 781 782 783 784 785 786 788 788 788 787 787 787 787 787 787 788 789 791 793 795 797 799 800 802 804 807 809 811 812 813 815 816 817 819 820 822 824 826 828 830 832 834 835 836 838 839 840 841 842 843 844 845
782 792 794 796 810 819 815 815 818 818 821 818 805 798 796 795 796 796 795 794 795 798 798 796 799 801 797 794 793 791 788 787 786 786 786 786 786 786 787 789 789 789 789 789 789 788 787 787 787 788 788 790 791 793 795 797 799 801 803 805 807 809 811 813 814 815 816 817 819 821 823 825 827 830 831 832 834 835 836 838 838 839 840 841 842 843
781 791 795 797 812 822 817 816 818 818 824 826 815 806 803 801 800 799 798 797 798 800 799 799 802 804 798 793 793 792 791 791 791 790 790 789 789 788 789 790 790 791 790 790 790 789 789 788 788 788 788 788 789 791 794 795 797 799 801 803 805 807 809 812 814 815 816 817 819 821 823 825 826 828 830 831 833 834 835 836 837 838 839 839 840 841
783 787 792 796 809 819 819 819 819 822 832 834 822 811 807 805 803 801 800 799 798 799 801 803 803 800 796 794 795 795 794 794 794 793 793 793 792 791 791 791 792 792 791 791 791 790 790 790 790 790 789 789 789 790 792 794 796 798 800 802 804 806 809 810 812 815 817 818 819 820 821 823 825 827 828 829 831 832 833 835 835 836 837 837 838 839
786 786 790 795 803 815 821 818 818 826 834 827 811 803 804 805 806 807 808 806 801 799 799 800 799 797 796 797 798 798 797 796 795 794 793 794 794 794 794 793 793 793 793 793 792 791 791 792 792 792 792 792 792 792 793 794 795 797 799 801 803 805 807 809 810 812 815 817 820 821 822 823 823 824 826 827 828 830 831 832 833 834 835 835 836 837
787 789 794 798 802 808 812 812 819 828 826 812 802 799 799 802 804 806 809 808 805 803 800 798 798 798 798 799 799 798 798 797 796 795 795 795 795 795 796 795 795 795 794 794 794 793 794 794 794 794 793 794 794 795 796 796 796 797 798 799 801 803 805 808 810 811 813 814 817 819 823 825 826 824 823 824 826 828 829 831 831 832 833 834 834 835
786 791 796 801 805 808 812 820 826 825 815 804 801 800 799 801 803 805 809 808 804 805 806 803 800 799 799 800 799 798 798 797 797 797 797 796 796 796 797 797 797 796 796 795 795 794 794 794 794 793 792 792 794 795 797 798 798 798 799 799 800 801 803 806 809 812 815 816 816 816 818 824 828 827 824 823 823 825 827 829 830 831 831 832 832 833
783 788 793 801 809 811 818 828 827 820 816 809 804 804 804 804 805 807 812 810 803 803 809 807 801 800 800 801 800 799 797 797 801 802 800 798 799 798 798 798 798 798 797 796 796 795 794 794 793 792 791 792 793 795 796 797 797 798 799 800 801 802 803 805 807 811 814 816 817 817 817 819 824 828 828 825 822 823 824 826 828 830 832 832 831 830
784 785 786 796 809 812 816 827 831 829 825 815 806 804 803 803 803 804 809 810 804 803 807 804 801 801 802 802 802 799 798 802 809 809 804 802 801 800 800 801 800 800 799 798 797 797 796 795 793 793 793 793 794 795 796 797 797 797 798 800 801 802 803 805 807 809 810 811 815 818 818 817 819 823 827 827 823 821 822 823 824 827 830 833 832 830
786 788 787 794 808 811 811 821 830 828 820 811 805 803 802 804 803 802 809 812 805 802 804 802 801 801 802 804 804 800 801 809 815 812 807 805 804 802 803 803 802 801 801 800 799 798 797 797 795 795 795 795 795 796 796 797 798 799 799 801 801 802 804 805 807 809 809 811 816 819 818 817 817 818 823 827 825 821 821 823 824 825 827 831 834 832
787 791 794 800 810 812 812 818 824 819 812 807 804 802 803 804 802 807 818 816 804 801 803 802 802 803 805 807 806 803 805 812 815 812 808 807 806 805 805 805 804 803 802 802 801 800 799 798 797 796 797 797 797 797 797 798 799 800 802 802 802 803 805 808 810 811 810 812 817 819 816 815 815 816 820 824 824 821 821 823 825 826 827 829 832 833
799 801 806 810 811 812 813 817 820 815 807 804 804 802 801 802 804 812 818 811 803 804 805 803 805 806 807 808 807 806 808 809 809 810 809 808 808 808 807 807 806 806 805 805 803 802 800 800 800 800 801 801 800 800 800 800 801 803 804 804 806 806 807 810 812 811 811 812 815 815 813 813 814 816 819 823 822 821 820 821 823 825 825 826 828 831
805 807 812 814 815 818 818 817 819 816 807 803 803 801 799 802 807 810 809 806 805 806 804 804 806 806 806 807 807 808 809 808 808 810 810 810 811 810 810 809 808 808 808 807 806 805 804 803 804 805 805 805 804 803 803 803 804 806 806 807 808 809 809 810 811 809 808 809 811 811 812 813 815 817 820 821 821 820 820 821 822 823 823 824 826 829
803 807 814 817 820 823 821 818 819 817 808 803 803 802 801 803 806 805 805 806 806 805 804 805 805 805 806 807 808 809 810 810 810 811 811 812 812 812 812 812 811 811 810 810 809 809 808 807 808 808 809 809 808 807 806 806 807 808 808 808 809 810 810 809 809 808 809 810 812 813 815 817 819 820 820 820 821 821 821 822 823 823 823 824 826 828
804 806 812 816 817 817 815 815 815 811 807 805 804 803 802 802 802 802 803 805 805 805 805 805 806 806 806 807 809 811 811 811 812 812 812 813 813 813 814 813 813 814 814 813 813 812 811 811 811 811 811 812 811 811 809 809 809 810 810 810 810 810 810 809 809 810 812 814 816 818 820 821 822 821 820 820 819 819 820 820 821 821 822 824 826 828
803 802 804 808 813 814 812 811 809 806 805 805 804 802 801 800 801 801 801 803 805 805 805 806 808 809 808 809 811 812 813 813 813 813 813 814 814 815 815 815 815 816 816 816 816 815 814 814 814 814 814 814 814 814 813 813 813 812 813 814 813 813 813 813 813 814 815 817 819 821 822 823 822 821 820 820 819 819 820 820 821 822 823 825 827 830
801 801 801 805 812 813 810 808 806 805 805 804 803 803 801 800 800 800 800 803 805 805 805 807 809 809 810 810 812 813 815 815 814 814 815 815 815 816 816 817 817 817 818 818 818 818 818 817 817 817 817 817 817 817 817 817 816 816 817 818 818 817 817 817 817 818 819 820 821 823 823 824 824 823 823 823 823 824 824 825 825 827 828 828 830 832
801 800 802 807 812 813 812 809 807 807 807 806 804 802 801 800 801 801 802 804 805 806 807 808 808 809 810 811 812 815 816 815 815 816 816 816 816 817 818 819 819 819 820 820 820 821 820 820 820 820 820 820 821 820 820 820 819 820 821 821 821 821 821 821 821 822 823 823 824 825 826 826 827 827 827 827 827 827 828 829 829 830 831 831 832 833
799 798 804 810 813 813 812 810 808 808 807 806 805 803 802 803 802 802 803 804 805 806 808 808 809 810 810 811 813 815 816 816 816 816 816 817 817 818 819 820 821 821 821 822 822 822 822 822 822 823 823 823 823 823 823 822 822 823 823 823 823 824 823 823 824 824 825 826 827 828 828 829 829 829 829 830 830 830 830 831 831 832 832 833 833 833
796 798 805 812 814 815 813 810 809 809 807 807 806 806 805 804 804 804 805 805 806 807 808 809 810 810 811 812 813 814 816 817 817 816 817 818 818 818 820 821 822 822 823 823 824 824 824 824 824 824 824 825 825 825 825 825 825 825 824 824 825 825 825 826 826 827 827 828 828 829 830 830 831 831 831 831 831 831 832 832 833 833 833 833 833 834
796 802 808 812 814 814 810 806 806 807 807 808 807 806 806 806 805 806 807 807 807 808 809 810 811 812 812 813 813 814 816 818 818 818 818 819 819 820 820 821 822 823 824 824 825 825 825 825 826 826 826 826 827 827 827 827 827 826 826 826 826 826 827 827 827 828 829 829 830 830 831 831 832 832 832 832 833 833 833 834 834 834 834 834 834 834
792 797 801 801 803 803 800 800 802 803 805 806 806 805 807 806 805 807 808 809 809 809 809 811 812 813 814 815 815 815 816 818 818 818 819 820 820 820 821 822 823 824 825 826 826 826 827 827 827 827 827 828 828 828 828 828 828 828 828 828 828 828 828 828 829 829 829 830 830 831 831 832 832 833 833 834 834 834 835 835 835 835 835 835 835 835